Weather History for PANC - January, 2012

Change the Weather History Date:

Tuesday, January 3, 2012

  Actual Average Record
Temperature  
Mean Temperature -2 °F 18 °F  
Max Temperature 2 °F 24 °F 47 °F (1986)
Min Temperature -7 °F 12 °F -29 °F (1975)
Degree Days  
Heating Degree Days 67    
Month to date heating degree days 205  
Since 1 July heating degree days 4883  
Cooling Degree Days 0    
Month to date cooling degree days 0  
Year to date cooling degree days 0  
Moisture  
Dew Point -6 °F    
Average Humidity 81    
Maximum Humidity 87    
Minimum Humidity 75    
Precipitation  
Precipitation 0.00 in 0.02 in 0.45 in (2007)
Month to date precipitation T 0.08  
Year to date precipitation T 0.08  
Snow  
Snow 0.00 in 0.40 in 11.20 in (2007)
Month to date snowfall T 1.3  
Since 1 July snowfall 66.9 39.4  
Snow Depth 21.00 in    
Sea Level Pressure  
Sea Level Pressure 29.46 in    
Wind  
Wind Speed 2 mph (ESE)    
Max Wind Speed 5 mph    
Max Gust Speed -    
Visibility 6 miles    
Events Fog , Snow    
T = Trace of Precipitation, MM = Missing Value Source: NWS Daily Summary

Daily Weather History Graph

Daily Weather History Graph

Search for Another Location

Airport or City:

Trip Planner

Search our weather history database for the weather conditions in past years. The results will help you decide how hot, cold, wet, or windy it might be!

Date:

Astronomy

Jan. 03, 2012 Rise Set
Actual Time 10:12 AM AKST 3:56 PM AKST
Civil Twilight 9:12 AM AKST 4:57 PM AKST
Nautical Twilight 8:13 AM AKST 5:55 PM AKST
Astronomical Twilight 7:20 AM AKST 6:49 PM AKST
Moon 12:17 PM AKST (1/3) 4:40 AM AKST (1/3)
Length of Visible Light 7h 44m
Length of Day
5h 44m
Waxing Gibbous, 74% of the Moon is Illuminated
Jan 3
Waxing Gibbous
Jan 8
Full
Jan 16
Last Quarter
Jan 22
New
Jan 30
First Quarter

Hourly Weather History & Observations

Time (AKST) Temp. Windchill Dew Point Humidity Pressure Visibility Wind Dir Wind Speed Gust Speed Precip Events Conditions
12:53 AM -2.9 °F -13.3 °F -7.1 °F 82% 29.63 in 7.0 mi ENE 4.6 mph - N/A Fog Mostly Cloudy
1:53 AM -0.9 °F - -6.0 °F 79% 29.63 in 7.0 mi Calm Calm - N/A Fog Mostly Cloudy
3:53 AM -4.0 °F - -9.0 °F 79% 29.62 in 10.0 mi Calm Calm - N/A   Overcast
4:53 AM -2.9 °F -11.2 °F -8.0 °F 79% 29.61 in 10.0 mi ESE 3.5 mph - N/A   Overcast
5:53 AM 1.0 °F -6.7 °F -2.9 °F 83% 29.59 in 10.0 mi ENE 3.5 mph - 0.00 in   Overcast
6:53 AM -0.9 °F - -6.0 °F 79% 29.58 in 10.0 mi Calm Calm - N/A   Overcast
7:53 AM -2.0 °F - -6.0 °F 83% 29.57 in 10.0 mi Calm Calm - N/A   Mostly Cloudy
8:53 AM -5.1 °F -13.6 °F -9.9 °F 80% 29.57 in 10.0 mi SSE 3.5 mph - N/A   Scattered Clouds
9:53 AM -9.0 °F - -13.0 °F 83% 29.57 in 10.0 mi Calm Calm - N/A   Scattered Clouds
10:53 AM -5.1 °F -13.6 °F -11.0 °F 76% 29.56 in 10.0 mi SSE 3.5 mph - N/A   Scattered Clouds
11:53 AM -0.9 °F - -6.0 °F 79% 29.54 in 9.0 mi Calm Calm - N/A   Scattered Clouds
12:46 PM -0.4 °F -8.3 °F -5.8 °F 78% 29.50 in 1.8 mi East 3.5 mph - N/A   Haze
12:53 PM 1.0 °F - -4.0 °F 79% 29.51 in 10.0 mi Calm Calm - N/A   Mostly Cloudy
1:08 PM 1.4 °F -6.2 °F -2.2 °F 85% 29.49 in 10.0 mi NE 3.5 mph - N/A   Mostly Cloudy
1:53 PM 1.9 °F - -2.9 °F 80% 29.47 in 10.0 mi Calm Calm - N/A   Mostly Cloudy
2:53 PM 1.9 °F - -2.0 °F 83% 29.45 in 10.0 mi Calm Calm - N/A   Mostly Cloudy
3:44 PM 1.4 °F - -2.2 °F 85% 29.43 in 1.0 mi Calm Calm - 0.00 in Snow Light Snow
3:53 PM -0.0 °F - -5.1 °F 79% 29.44 in 0.5 mi Calm Calm - 0.00 in Snow Light Snow
3:56 PM -0.4 °F - -5.8 °F 78% 29.42 in 0.5 mi Calm Calm - 0.00 in Snow Light Snow
4:06 PM 3.2 °F -4.2 °F -2.2 °F 78% 29.42 in 0.5 mi ENE 3.5 mph - 0.00 in Snow Light Snow
4:19 PM 1.4 °F -8.3 °F -2.2 °F 85% 29.42 in 0.5 mi East 4.6 mph - 0.00 in   Mostly Cloudy
4:29 PM -0.4 °F -8.3 °F -4.0 °F 85% 29.41 in 0.5 mi ENE 3.5 mph - 0.00 in   Mostly Cloudy
4:38 PM 1.4 °F -8.3 °F -2.2 °F 85% 29.41 in 0.5 mi East 4.6 mph - 0.00 in   Mostly Cloudy
4:53 PM -2.0 °F -10.1 °F -6.0 °F 83% 29.42 in 0.5 mi SE 3.5 mph - 0.00 in   Overcast
5:18 PM -0.4 °F -8.3 °F -4.0 °F 85% 29.39 in 0.5 mi SE 3.5 mph - N/A Fog Light Freezing Fog
5:27 PM 1.4 °F -8.3 °F -4.0 °F 78% 29.39 in 0.2 mi ESE 4.6 mph - N/A Fog Light Freezing Fog
5:37 PM 1.4 °F -6.2 °F -4.0 °F 78% 29.39 in 0.5 mi SE 3.5 mph - N/A Fog Light Freezing Fog
5:53 PM -0.0 °F - -5.1 °F 79% 29.39 in 0.5 mi Calm Calm - N/A Fog Light Freezing Fog
6:39 PM -0.4 °F -8.3 °F -2.2 °F 92% 29.38 in 0.5 mi Variable 3.5 mph - N/A   Mostly Cloudy
6:44 PM -4.0 °F -14.6 °F -7.6 °F 85% 29.37 in 2.0 mi SE 4.6 mph - N/A   Scattered Clouds
6:53 PM -4.0 °F -12.4 °F -9.9 °F 76% 29.39 in 3.0 mi SSE 3.5 mph - N/A   Scattered Clouds
7:53 PM -5.1 °F - -9.9 °F 80% 29.37 in 10.0 mi Calm Calm - N/A Fog Scattered Clouds
8:53 PM -2.0 °F - -8.0 °F 76% 29.36 in 10.0 mi Calm Calm - N/A Fog Scattered Clouds
9:53 PM -0.9 °F -8.9 °F -6.0 °F 79% 29.34 in 10.0 mi NNW 3.5 mph - N/A   Scattered Clouds
10:53 PM -0.9 °F -8.9 °F -6.0 °F 79% 29.33 in 10.0 mi Variable 3.5 mph - N/A   Mostly Cloudy
11:53 PM -0.9 °F - -7.1 °F 75% 29.31 in 10.0 mi Calm Calm - N/A   Mostly Cloudy